{"data":{"norad_id":53162,"intl_designator":"2022-083AG","name":"STARLINK-4114","alt_names":[],"object_type":"PAYLOAD","status":"ACTIVE","operator":null,"country":"US","launch_date":"2022-07-17","launch_site_code":"AFETR","launch_vehicle":null,"mission":null,"orbit_class":"UNKNOWN","rcs_meters":null,"size_class":null,"mass_kg":null,"dimensions":null,"purposes":["comms"],"wikipedia_slug":null,"has_3d_model":false,"image_url":null,"decayed_at":null,"tle_current":{"epoch":"2026-09-20T00:11:57.571872Z","epoch_age_seconds":114704,"freshness":"FRESH","line1":"1 53162U 22083AG  26263.00830523  .00000491  00000+0  27582-4 0  9993","line2":"2 53162  53.1603   0.0725 0001069  61.5351 298.5758 15.31701941230852","mean_motion":15.31701941,"eccentricity":0.0001069,"inclination_deg":53.1603,"raan_deg":0.0725,"arg_perigee_deg":61.5351,"mean_anomaly_deg":298.5758,"bstar":2.7582e-5,"rev_number":23085,"period_min":94.013068825902,"perigee_km":470.00206487949,"apogee_km":471.46635354402,"semimajor_km":6848.8712092118,"source":"CELESTRAK","updated_at":"2026-09-20T09:00:40.183859Z"}}}